Date String (YYYY-MM-DD hh:mm:ss) UTC,Instrument flags,absolute air pressure of the measurement (hPa),sample flow rate (lpm),inlet stack bypass flow (lpm),air temperature of the measurement (°C),ambient temperature measured by the external sensor (°C),aerosol sample conditioner tube jacket temperature (°C),OPC LED temperature (°C),internal box temperature (°C),relative humidity of the measurement (%),span deviation,mass concentration of particles derived from Lorenz-Mie calculation of OPC scattering (μg/m³),mass concentration of particles derived from Lorenz-Mie calculation of OPC scattering (μg/m³),mass concentration of particles derived from Lorenz-Mie calculation of OPC scattering (μg/m³)
DateTimeUTC,F1_M11,P_M11,Q1_M11,Q2_M11,T1_M11,T2_M11,T3_M11,T4_M11,T5_M11,U1_M11,ZSPAN_M11,X0_M11,X2_M11,X1_M11
2023-06-12 23:00:00,SystemResetWarning,0828.6,5.01,000.00,029.9,028.4,000.0,038.4,031.4,27.2,0000.0,0006.42,0002.25,0001.62
2023-06-12 23:01:00,SystemResetWarning,0828.6,4.97,000.00,029.9,028.4,000.0,038.4,031.4,27.2,0000.0,0006.33,0002.23,0001.62
2023-06-12 23:02:00,SystemResetWarning,0828.6,5.00,000.00,029.9,028.4,000.0,038.4,031.4,27.5,0000.0,0006.07,0002.25,0001.64
2023-06-12 23:03:00,SystemResetWarning,0828.6,5.01,000.00,029.9,028.4,000.0,038.4,031.4,27.0,0000.0,0005.82,0002.23,0001.65
2023-06-12 23:04:00,SystemResetWarning,0828.6,5.01,000.00,029.9,028.4,000.0,038.4,031.4,27.1,0000.0,0005.83,0002.19,0001.66
2023-06-12 23:05:00,SystemResetWarning,0828.6,5.00,000.00,029.9,028.4,000.0,038.4,031.4,26.3,0000.0,0005.81,0002.18,0001.68
2023-06-12 23:06:00,SystemResetWarning,0828.6,5.00,000.00,029.9,028.4,000.0,038.4,031.4,26.3,0000.0,0005.88,0002.19,0001.69
2023-06-12 23:07:00,SystemResetWarning,0828.6,5.00,000.00,029.9,028.4,000.0,038.4,031.4,26.3,0000.0,0006.13,0002.25,0001.71
2023-06-12 23:08:00,SystemResetWarning,0828.6,4.99,000.00,029.9,028.4,000.0,038.4,031.4,26.3,0000.0,0006.24,0002.27,0001.73
2023-06-12 23:09:00,SystemResetWarning,0828.6,5.00,000.00,029.9,028.4,000.0,038.4,031.4,26.4,0000.0,0006.03,0002.30,0001.76
2023-06-12 23:10:00,SystemResetWarning,0828.6,5.00,000.00,029.9,028.4,000.0,038.4,031.4,26.9,0000.0,0004.32,0002.34,0001.80
2023-06-12 23:11:00,SystemResetWarning,0828.6,4.99,000.00,029.9,028.4,000.0,038.4,031.4,26.7,0000.0,0004.33,0002.41,0001.85
2023-06-12 23:12:00,SystemResetWarning,0828.6,5.01,000.00,029.9,028.4,000.0,038.4,031.4,27.1,0000.0,0004.31,0002.44,0001.88
2023-06-12 23:13:00,SystemResetWarning,0828.6,4.99,000.00,029.9,028.4,000.0,038.5,031.4,26.8,0000.0,0004.19,0002.44,0001.89
2023-06-12 23:14:00,SystemResetWarning,0828.6,5.00,000.00,029.9,028.4,000.0,038.5,031.4,26.2,0000.0,0004.21,0002.47,0001.90
2023-06-12 23:15:00,SystemResetWarning,0828.6,5.00,000.00,029.9,028.4,000.0,038.5,031.3,26.3,0000.0,0004.21,0002.51,0001.91
2023-06-12 23:16:00,SystemResetWarning,0828.6,5.02,000.00,029.9,028.4,000.0,038.5,031.4,26.5,0000.0,0004.16,0002.53,0001.93
2023-06-12 23:17:00,SystemResetWarning,0828.6,4.99,000.00,029.9,028.4,000.0,038.5,031.4,26.5,0000.0,0004.30,0002.57,0001.94
2023-06-12 23:18:00,SystemResetWarning,0828.6,4.99,000.00,029.9,028.4,000.0,038.5,031.4,26.7,0000.0,0004.20,0002.58,0001.97
2023-06-12 23:19:00,SystemResetWarning,0828.6,5.01,000.00,029.9,028.4,000.0,038.5,031.4,26.8,0000.0,0004.63,0002.61,0001.99
2023-06-12 23:20:00,SystemResetWarning,0828.6,5.02,000.00,029.9,028.4,000.0,038.5,031.4,27.0,0000.0,0005.63,0002.60,0002.00
2023-06-12 23:21:00,SystemResetWarning,0828.7,4.99,000.00,029.9,028.4,000.0,038.5,031.4,26.7,0000.0,0005.57,0002.58,0001.99
2023-06-12 23:22:00,SystemResetWarning,0828.7,4.99,000.00,029.9,028.4,000.0,038.5,031.4,26.8,0000.0,0006.00,0002.52,0001.98
2023-06-12 23:23:00,SystemResetWarning,0828.7,4.99,000.00,029.9,028.4,000.0,038.5,031.4,27.3,0000.0,0006.12,0002.55,0001.99
2023-06-12 23:24:00,SystemResetWarning,0828.7,5.00,000.00,029.9,028.4,000.0,038.5,031.4,26.9,0000.0,0006.13,0002.56,0002.01
2023-06-12 23:25:00,SystemResetWarning,0828.8,5.00,000.00,029.9,028.4,000.0,038.5,031.4,27.4,0000.0,0006.20,0002.59,0002.02
2023-06-12 23:26:00,SystemResetWarning,0828.8,5.01,000.00,029.9,028.4,000.0,038.5,031.4,26.3,0000.0,0006.24,0002.57,0002.03
2023-06-12 23:27:00,SystemResetWarning,0828.8,5.01,000.00,029.9,028.4,000.0,038.5,031.3,26.2,0000.0,0006.29,0002.57,0002.02
2023-06-12 23:28:00,SystemResetWarning,0828.8,5.00,000.00,029.9,028.4,000.0,038.5,031.4,26.4,0000.0,0006.50,0002.60,0002.02
2023-06-12 23:29:00,SystemResetWarning,0828.7,4.99,000.00,029.9,028.4,000.0,038.5,031.4,26.6,0000.0,0006.57,0002.60,0002.00
2023-06-12 23:30:00,SystemResetWarning,0828.8,4.99,000.00,029.9,028.4,000.0,038.5,031.3,26.5,0000.0,0006.09,0002.55,0001.98
2023-06-12 23:31:00,SystemResetWarning,0828.8,5.00,000.00,029.9,028.4,000.0,038.5,031.3,26.7,0000.0,0004.86,0002.54,0001.97
2023-06-12 23:32:00,SystemResetWarning,0828.8,5.00,000.00,029.9,028.4,000.0,038.5,031.3,27.0,0000.0,0004.88,0002.56,0001.96
2023-06-12 23:33:00,SystemResetWarning,0829.0,5.00,000.00,029.9,028.4,000.0,038.5,031.3,26.6,0000.0,0004.32,0002.54,0001.95
2023-06-12 23:34:00,SystemResetWarning,0829.0,4.99,000.00,029.9,028.4,000.0,038.5,031.3,26.7,0000.0,0004.16,0002.54,0001.93
2023-06-12 23:35:00,SystemResetWarning,0829.0,5.00,000.00,029.9,028.4,000.0,038.5,031.3,26.6,0000.0,0004.41,0002.55,0001.92
2023-06-12 23:36:00,SystemResetWarning,0829.0,5.01,000.00,029.9,028.4,000.0,038.5,031.4,26.7,0000.0,0004.47,0002.55,0001.91
2023-06-12 23:37:00,SystemResetWarning,0829.0,5.01,000.00,029.9,028.4,000.0,038.5,031.4,26.9,0000.0,0004.30,0002.53,0001.91
2023-06-12 23:38:00,SystemResetWarning,0829.0,4.99,000.00,029.9,028.4,000.0,038.5,031.3,26.6,0000.0,0004.39,0002.51,0001.91
2023-06-12 23:39:00,SystemResetWarning,0828.9,5.00,000.00,029.9,028.4,000.0,038.5,031.4,27.0,0000.0,0004.09,0002.47,0001.92
2023-06-12 23:40:00,SystemResetWarning,0828.9,4.99,000.00,029.9,028.4,000.0,038.5,031.4,26.8,0000.0,0003.92,0002.44,0001.92
2023-06-12 23:41:00,SystemResetWarning,0829.0,5.00,000.00,029.9,028.4,000.0,038.5,031.3,26.2,0000.0,0004.00,0002.48,0001.94
2023-06-12 23:42:00,SystemResetWarning,0829.0,5.01,000.00,029.9,028.4,000.0,038.5,031.4,26.1,0000.0,0004.11,0002.53,0001.96
2023-06-12 23:43:00,SystemResetWarning,0828.9,5.00,000.00,029.9,028.4,000.0,038.5,031.4,25.9,0000.0,0004.30,0002.53,0001.97
2023-06-12 23:44:00,SystemResetWarning,0828.9,5.01,000.00,029.9,028.4,000.0,038.5,031.4,25.9,0000.0,0004.55,0002.51,0001.98
2023-06-12 23:45:00,SystemResetWarning,0829.0,4.99,000.00,029.9,028.4,000.0,038.5,031.4,25.7,0000.0,0004.61,0002.56,0002.00
2023-06-12 23:46:00,SystemResetWarning,0829.1,5.00,000.00,029.9,028.4,000.0,038.5,031.4,25.2,0000.0,0004.38,0002.56,0002.01
2023-06-12 23:47:00,SystemResetWarning,0829.1,5.00,000.00,030.0,028.5,000.0,038.5,031.3,25.4,0000.0,0004.41,0002.56,0002.03
2023-06-12 23:48:00,SystemResetWarning,0829.1,4.99,000.00,030.0,028.4,000.0,038.5,031.3,25.5,0000.0,0004.38,0002.54,0002.04
2023-06-12 23:49:00,SystemResetWarning,0829.1,4.98,000.00,030.0,028.5,000.0,038.5,031.4,25.6,0000.0,0004.54,0002.63,0002.05
2023-06-12 23:50:00,SystemResetWarning,0829.2,5.01,000.00,030.0,028.5,000.0,038.5,031.4,25.6,0000.0,0004.56,0002.66,0002.06
2023-06-12 23:51:00,SystemResetWarning,0829.2,5.01,000.00,030.0,028.5,000.0,038.5,031.4,25.3,0000.0,0004.56,0002.67,0002.08
2023-06-12 23:52:00,SystemResetWarning,0829.2,4.99,000.00,030.0,028.5,000.0,038.5,031.4,25.3,0000.0,0004.73,0002.69,0002.09
2023-06-12 23:53:00,SystemResetWarning,0829.2,4.99,000.00,030.0,028.5,000.0,038.5,031.5,25.3,0000.0,0004.91,0002.72,0002.09
2023-06-12 23:54:00,SystemResetWarning,0829.2,5.01,000.00,030.0,028.5,000.0,038.5,031.5,24.7,0000.0,0004.97,0002.74,0002.10
2023-06-12 23:55:00,SystemResetWarning,0829.2,5.01,000.00,030.0,028.5,000.0,038.5,031.5,24.8,0000.0,0004.80,0002.78,0002.11
2023-06-12 23:56:00,SystemResetWarning,0829.2,4.99,000.00,030.1,028.5,000.0,038.5,031.5,25.1,0000.0,0004.91,0002.79,0002.12
2023-06-12 23:57:00,SystemResetWarning,0829.2,4.99,000.00,030.1,028.6,000.0,038.6,031.5,25.1,0000.0,0004.94,0002.78,0002.12
2023-06-12 23:58:00,SystemResetWarning,0829.3,5.00,000.00,030.1,028.6,000.0,038.6,031.6,25.4,0000.0,0005.14,0002.82,0002.13
2023-06-12 23:59:00,SystemResetWarning,0829.2,5.01,000.00,030.1,028.6,000.0,038.6,031.6,25.8,0000.0,0005.64,0002.90,0002.13
